Overview Statistics Trail Chart Weather Telemetry Raw packets
 

This is the latest recevied weather packets stored in our database for station/object OM5ZU-10. If no packets are shown the sender has not sent any weather packets the latest 10 day(s).

<< 2 3 4 5 6 7 8 >>
Time Temp. Humidity Pressure Rain* Wind** Luminosity Snow
1788497404 17.22° C 72% 1018.7 hPa - - - -
1788496504 16.67° C 72% 1018.6 hPa - - - -
1788495604 16.67° C 72% 1018.5 hPa - - - -
1788494704 17.22° C 72% 1018.8 hPa - - - -
1788493804 16.67° C 72% 1018.8 hPa - - - -
1788492904 16.67° C 72% 1018.6 hPa - - - -
1788492003 17.22° C 72% 1018.6 hPa - - - -
1788491103 17.22° C 72% 1018.7 hPa - - - -
1788490203 16.67° C 72% 1018.8 hPa - - - -
1788489303 16.67° C 72% 1018.7 hPa - - - -
1788488403 17.22° C 72% 1018.5 hPa - - - -
1788487503 17.78° C 72% 1018.6 hPa - - - -
1788486603 17.22° C 72% 1018.6 hPa - - - -
1788485702 16.67° C 72% 1018.6 hPa - - - -
1788484802 17.22° C 72% 1018.6 hPa - - - -
1788483902 17.22° C 72% 1018.7 hPa - - - -
1788483002 17.22° C 72% 1018.7 hPa - - - -
1788482102 17.22° C 72% 1018.6 hPa - - - -
1788481202 17.22° C 72% 1018.8 hPa - - - -
1788480301 16.67° C 72% 1018.7 hPa - - - -
1788479401 16.11° C 72% 1018.9 hPa - - - -
1788478501 16.11° C 72% 1019 hPa - - - -
1788477601 15° C 71% 1019.1 hPa - - - -
1788476701 15° C 72% 1019 hPa - - - -
1788475801 15° C 72% 1018.9 hPa - - - -

* Rain since midnight (hover to see other rain measurements)
** Current wind speed in m/s (hover to see current wind gust speed)